This demonstration page uses our WeatherBlox Daily Observations layout. Learn more.

Left ArrowRight Arrow

44.8408, -93.29828

Hourly Observations for July 4, 2016

Temp ( °F °C ) Dew Point ( °F °C ) Humidity (%) Winds ( mph kmh ) Pressure ( in mb ) Visibility ( mi km ) Precip ( " mm )
12:53 am 00:53 Clear 67 19.4 55 12.8 66 66 SSE 9 15 29.92 1013 10 16 0.00 0.00
1:53 am 01:53 Clear 68 20 54 12.2 61 61 S 8 13 29.91 1013 10 16 0.00 0.00
2:53 am 02:53 Clear 67 19.4 53 11.7 61 61 S 5 7 29.89 1012 10 16 0.00 0.00
3:53 am 03:53 Clear 66 18.9 54 12.2 65 65 S 6 9 29.87 1012 10 16 0.00 0.00
5:53 am 05:53 Mostly Sunny 62 16.7 54 12.2 75 75 SE 5 7 29.87 1012 10 16 0.00 0.00
6:53 am 06:53 Mostly Sunny 65 18.3 56 13.3 73 73 S 3 6 29.88 1012 10 16 0.00 0.00
7:53 am 07:53 Mostly Sunny 68 20 56 13.3 65 65 SSW 7 11 29.87 1012 10 16 0.00 0.00
8:53 am 08:53 Mostly Sunny 71 21.7 57 13.9 61 61 S 9 15 29.85 1011 10 16 0.00 0.00
9:53 am 09:53 Cloudy 73 22.8 55 12.8 53 53 SW 9 15 29.84 1011 10 16 0.00 0.00
10:53 am 10:53 Mostly Cloudy 73 22.8 56 13.3 55 55 SSW 12 19 29.83 1010 10 16 0.00 0.00
11:53 am 11:53 Mostly Cloudy 75 23.9 57 13.9 54 54 SSW 9 15 29.83 1010 10 16 0.00 0.00
12:53 pm 12:53 Mostly Cloudy 76 24.4 57 13.9 52 52 S 13 20 29.80 1009 10 16 0.00 0.00
1:53 pm 13:53 Cloudy 76 24.4 57 13.9 52 52 S 9 15 29.80 1009 10 16 0.00 0.00
2:53 pm 14:53 Mostly Cloudy 79 26.1 58 14.4 49 49 SSW 8 13 29.79 1009 10 16 0.00 0.00
3:53 pm 15:53 Mostly Cloudy 79 26.1 59 15 50 50 S 9 15 29.78 1008 10 16 0.00 0.00
4:53 pm 16:53 Mostly Cloudy 79 26.1 60 15.6 52 52 SW 13 20 29.78 1008 10 16 0.00 0.00
5:53 pm 17:53 Mostly Cloudy 79 26.1 60 15.6 52 52 SSW 10 17 29.76 1008 10 16 0.00 0.00
6:53 pm 18:53 Cloudy 78 25.6 61 16.1 56 56 SSW 8 13 29.75 1008 10 16 0.00 0.00
7:53 pm 19:53 Cloudy 78 25.6 61 16.1 56 56 SW 9 15 29.73 1007 10 16 0.00 0.00
8:53 pm 20:53 Cloudy 76 24.4 62 16.7 62 62 SSW 10 17 29.73 1007 10 16 0.00 0.00
9:53 pm 21:53 Partly Cloudy 75 23.9 62 16.7 64 64 SSW 8 13 29.74 1007 10 16 0.00 0.00
10:53 pm 22:53 Partly Cloudy 73 22.8 62 16.7 69 69 SSW 8 13 29.76 1008 10 16 0.00 0.00
11:53 pm 23:53 Partly Cloudy 72 22.2 62 16.7 71 71 SSW 6 9 29.77 1008 10 16 0.00 0.00

Powered by AerisWeather